Regional Weather Roundup
Issued by NWS

Home | Current Version | Previous Version | Text Only | Print | Product List | Glossary Off
Versions: 1 2 3 4 5 6 7 8 9 10 11 12 13 14 15 16 17 18 19 20 21 22 23 24 25 26 27 28 29 30 31 32 33 34 35 36 37 38 39 40 41 42 43 44 45 46 47 48 49 50

000
ASUS43 KDTX 311210
RWRMI
MICHIGAN HOURLY REGIONAL WEATHER ROUNDUP
NATIONAL WEATHER SERVICE DETROIT/PONTIAC MI
800 AM EDT FRI OCT 31 2014

NOTE: "FAIR" INDICATES FEW OR NO CLOUDS BELOW 12,000 FEET WITH NO
SIGNIFICANT WEATHER AND/OR OBSTRUCTION TO VISIBILITY.

MIZ047>049-052>055-059>063-066>070-074>076-081>083-311300-
SOUTHEAST LOWER MICHIGAN

CITY           SKY/WX    TMP DP  RH WIND       PRES   REMARKS
ADRIAN         LGT RAIN  42  38  85 SW5       29.90F
6HR MIN TEMP:  42; 6HR MAX TEMP:  44; 6HR PCP: TRACE;

ALMA           LGT RAIN  41  39  95 W6        29.90F
ANN ARBOR      LGT RAIN  42  38  85 SW5       29.89F FOG
BAD AXE        LGT RAIN  41  41 100 CALM      29.89S
6HR MIN TEMP:  40; 6HR MAX TEMP:  43;

DETROIT CITY   LGT RAIN  47  37  68 SW5       29.90F
6HR MIN TEMP:  46; 6HR MAX TEMP:  48; 6HR PCP: TRACE;

DETROIT        LGT RAIN  43  38  82 S8        29.90F
6HR MIN TEMP:  43; 6HR MAX TEMP:  46; 6HR PCP: TRACE;

FLINT          LGT RAIN  44  40  85 W6        29.89F FOG
6HR MIN TEMP:  44; 6HR MAX TEMP:  46; 6HR PCP:  0.04;

GROSSE ILE     DRIZZLE   45  37  76 SW6       29.89F
HILLSDALE      LGT RAIN  43  42  99 W6        29.89F
6HR MIN TEMP:  43; 6HR MAX TEMP:  44;

HOWELL         LGT RAIN  41  40  95 NW5       29.88S
6HR MIN TEMP:  41; 6HR MAX TEMP:  43;


CITY           SKY/WX    TMP DP  RH WIND       PRES   REMARKS
JACKSON        LGT RAIN  41  39  93 NW9       29.89F
6HR MIN TEMP:  41; 6HR MAX TEMP:  44; 6HR PCP:  0.07;

LAMBERTVILLE   CLOUDY    45  36  70 SW5       29.90F
LANSING        LGT RAIN  41  38  89 NW9       29.91S
6HR MIN TEMP:  41; 6HR MAX TEMP:  44; 6HR PCP:  0.06;

LAPEER         NOT AVBL
MASON          LGT RAIN  40  38  93 NW3       29.89F
MONROE         DRIZZLE   45  37  76 SW5       29.88F
MT. CLEMENS    CLOUDY    44  39  84 S5        29.86F
6HR MIN TEMP:  44; 6HR MAX TEMP:  46; 6HR PCP: TRACE;

PONTIAC        LGT RAIN  42  37  82 SW5       29.87F
6HR MIN TEMP:  42; 6HR MAX TEMP:  45; 6HR PCP: TRACE;

PORT HOPE        N/A     42  39  89 SW5       29.87S
6HR MIN TEMP:  42; 6HR MAX TEMP:  44; 6HR PCP:  0.04;

PORT HURON     DRIZZLE   41  39  93 CALM      29.89F
TRI CITIES     LGT RAIN  42  39  89 NW6       29.90S
6HR MIN TEMP:  42; 6HR MAX TEMP:  44; 6HR PCP:  0.12;

YPSILANTI      LGT RAIN  46  38  73 SW7       29.90F
6HR MIN TEMP:  46; 6HR MAX TEMP:  48; 6HR PCP:  0.01;

$$
MIZ043>046-050>051-056>058-064>065-071>073-077>080-311300-
SOUTHWEST LOWER MICHIGAN

CITY           SKY/WX    TMP DP  RH WIND       PRES   REMARKS
BATTLE CREEK   LGT RAIN  40  35  83 NW12      29.93S
6HR MIN TEMP:  40; 6HR MAX TEMP:  45; 6HR PCP:  0.04;

BENTON HARBOR  LGT RAIN  41  36  82 NW14G24   29.97S
6HR MIN TEMP:  40; 6HR MAX TEMP:  49; 6HR PCP:  0.14;

BIG RAPIDS     CLOUDY    39  39 100 NW3       29.89S
6HR MIN TEMP:  39; 6HR MAX TEMP:  42; 6HR PCP:  0.04;

COLDWATER      LGT RAIN  42  39  90 NW8G17    29.91S
6HR MIN TEMP:  42; 6HR MAX TEMP:  45;

HOLLAND        LGT RAIN  41  37  86 N9        29.95S
6HR MIN TEMP:  41; 6HR MAX TEMP:  50; 6HR PCP:  0.27;

GRAND RAPIDS   CLOUDY    41  40  96 NW10      29.93S
6HR MIN TEMP:  41; 6HR MAX TEMP:  46; 6HR PCP:  0.12;

KALAMAZOO      LGT RAIN  40  36  86 NW12      29.93F
6HR MIN TEMP:  40; 6HR MAX TEMP:  46; 6HR PCP:  0.08;

MARSHALL       LGT RAIN  39  38  95 NW3       29.91S
MUSKEGON       CLOUDY    40  35  83 NW13      29.94F
6HR MIN TEMP:  40; 6HR MAX TEMP:  48; 6HR PCP:  0.16;

$$
MIZ016>042-311300-
NORTHERN LOWER MICHIGAN

CITY           SKY/WX    TMP DP  RH WIND       PRES   REMARKS
ALPENA         LGT RAIN  37  34  89 N20G32    29.94R FOG
6HR MIN TEMP:  37; 6HR MAX TEMP:  41; 6HR PCP:  0.05;

BEAVER ISLAND  CLOUDY    34  31  87 N20G33    30.09R
6HR MIN TEMP:  34; 6HR MAX TEMP:  41;

BELLAIRE       FLURRIES  35  32  90 N12G23    30.00R
6HR MIN TEMP:  35; 6HR MAX TEMP:  41;

CADILLAC       LGT SNOW  34  32  94 N7        29.89R
CHARLEVOIX     FLURRIES  34  32  92 N29G37    30.07R
6HR MIN TEMP:  34; 6HR MAX TEMP:  42;

FRANKFORT      LGT SNOW  35  34  94 N15G32    30.01R
GAYLORD        LGT SNOW  32  30  92 NE17G26   29.95R VSB 1
6HR MIN TEMP:  32; 6HR MAX TEMP:  38; 6HR PCP:  0.10;

GRAYLING       DRIZZLE   36  34  94 N17       29.93R
6HR MIN TEMP:  36; 6HR MAX TEMP:  39;

HARBOR SPRINGS LGT SNOW  32  31  95 N9        30.03R
HOUGHTON LAKE  CLOUDY    38  36  92 N7        29.90R FOG
6HR MIN TEMP:  38; 6HR MAX TEMP:  41; 6HR PCP:  0.03;

MANISTEE       CLOUDY    36  30  80 N14G21    29.97R
OSCODA         LGT RAIN  40  39  99 N5        29.89S
PELLSTON       LGT SNOW  33  31  92 N22G28    30.06R FOG
6HR MIN TEMP:  33; 6HR MAX TEMP:  40; 6HR PCP:  0.17;

TRAVERSE CITY  FLURRIES  38  33  82 N18G32    29.98R
6HR MIN TEMP:  38; 6HR MAX TEMP:  42; 6HR PCP:  0.33;

$$
MIZ007>008-015-311300-
EASTERN UPPER MICHIGAN

CITY           SKY/WX    TMP DP  RH WIND       PRES   REMARKS
KINROSS        CLOUDY    30  30 100 N15       30.10R
6HR MIN TEMP:  30; 6HR MAX TEMP:  36; 6HR PCP:  0.02;

MACKINAC ISLAN LGT SNOW  32  32 100 N22G35    30.07R
NEWBERRY       CLOUDY    31  26  83 N13G24    30.14R
S. S. MARIE    LGT SNOW  31  26  82 NE9G17    30.16R
6HR MIN TEMP:  32; 6HR MAX TEMP:  35; 6HR PCP:  0.01;

$$
MIZ004>006-011>014-085-311300-
CENTRAL UPPER MICHIGAN

CITY           SKY/WX    TMP DP  RH WIND       PRES   REMARKS
MANISTIQUE     LGT SNOW  32  29  91 N22G31    30.15R
ESCANABA       CLOUDY    32  25  74 N16G28    30.18R
6HR MIN TEMP:  32; 6HR MAX TEMP:  36;

MENOMINEE      CLOUDY    34  21  60 N18G36    30.18R
6HR MIN TEMP:  34; 6HR MAX TEMP:  39;

SAWYER-GWINN   LGT SNOW  30  25  80 N28G35    30.22R
$$
MIZ001>003-009>011-084-311300-
WESTERN UPPER MICHIGAN

CITY           SKY/WX    TMP DP  RH WIND       PRES   REMARKS
IRON MOUNTAIN  MOCLDY    30  22  72 N20G30    30.24R
6HR MIN TEMP:  30; 6HR MAX TEMP:  34; 6HR PCP: TRACE;

HOUGHTON       FLURRIES  29  21  72 N13G22    30.35R
6HR MIN TEMP:  29; 6HR MAX TEMP:  31; 6HR PCP:  0.02;

COPPER HARBOR    N/A     35  25  66 NE30G37   30.35R
6HR MIN TEMP:  34; 6HR MAX TEMP:  37;

IRONWOOD       CLOUDY    28  23  80 N13G20    30.37S
6HR MIN TEMP:  28; 6HR MAX TEMP:  30;

$$

ABBREVIATIONS USED IN REMARKS
   TC - TEMPERATURE IN CELSIUS
  WCI - WIND CHILL INDEX
   HX - HEAT INDEX
  VSB - VISIBILITY




USA.gov is the U.S. government's official web portal to all federal, state and local government web resources and services.